Location: Cime du Mélézet
(44.6500°N, 6.8000°E)
Time: 11:06:51
(UTC+00:00)

Daily predictions for brighter satellites

Satellite Brightness Start Highest point End
(mag) Time Altitude Azimuth Time Altitude Azimuth Time Altitude Azimuth
Meteor 1-18 Rocket 4.4 18:06:06 10° N 18:12:01 67° ENE 18:17:48 10° SSE
Cosmos 2333 Rocket 3.7 18:07:04 10° SW 18:12:32 43° WNW 18:18:02 10° NNE
SeaSat 1 3.2 18:10:11 10° NNE 18:15:01 58° WNW 18:19:49 10° SW
Iridium 4 Rocket 3.3 18:11:14 10° N 18:15:13 43° E 18:19:13 10° SSE
Cosmos 1151 Rocket 3.1 18:11:46 10° N 18:16:03 85° W 18:20:16 10° S
Meteor 1-5 Rocket 4.5 18:15:46 10° SSW 18:21:25 80° W 18:27:19 10° N
Cosmos 1937 Rocket 4.4 18:17:55 10° NNW 18:23:04 55° WSW 18:28:13 10° S
NOSS 0 Rocket 4.3 18:20:00 10° S 18:25:48 43° ESE 18:31:39 10° NE
Cosmos 1943 Rocket 3.2 18:23:16 10° N 18:28:01 28° NE 18:32:34 11° ESE
USA 276 2.9 18:25:18 10° NW 18:28:01 35° NNE 18:30:24 11° E
ACS3 Solar Sail 3.0 18:25:01 10° ESE 18:30:01 25° ENE 18:35:01 10° N
Cosmos 2322 3.7 18:25:25 10° SSW 18:31:04 90° ESE 18:36:45 10° NNE
Cosmos 2233 Rocket 4.1 18:26:03 10° S 18:32:11 81° W 18:38:24 10° N
Cosmos 1400 Rocket 2.6 18:28:26 10° N 18:32:15 70° ENE 18:36:00 10° SSE
BlueWalker 3 1.9 18:30:46 10° WNW 18:34:31 84° SW 18:37:58 12° SE
Cosmos 1066 Rocket 4.3 18:28:59 10° N 18:34:53 77° E 18:40:40 10° SSE
Cosmos 1726 2.0 18:32:13 10° SSW 18:34:58 60° W 18:37:44 10° N
Resurs 1-3 3.5 18:31:13 10° SSE 18:35:31 77° ENE 18:39:53 10° N
SAR-Lupe-2 3.7 18:39:58 10° S 18:43:31 76° WSW 18:47:07 10° NNW
Cosmos 1315 Rocket 4.2 18:44:58 10° NNE 18:47:57 20° ENE 18:49:14 17° E
Cosmos 1464 Rocket 4.3 18:42:20 10° SSE 18:48:14 44° E 18:54:13 10° NNE
Meteor PRIRODA 3.3 18:45:01 10° SSE 18:48:19 87° ENE 18:51:37 10° NNW
Cosmos 1125 Rocket 4.1 18:47:04 10° N 18:51:55 38° ENE 18:55:24 17° ESE
Cosmos 1536 3.0 18:49:30 10° SSE 18:53:05 41° E 18:56:42 10° NNE
Cosmos 1842 3.0 18:49:38 10° N 18:53:15 65° E 18:56:49 10° SSE
Okean 3 Rocket 3.8 18:49:13 10° SSE 18:53:30 48° E 18:57:47 10° NNE
COSMOS 2428 3.0 18:49:12 10° SSW 18:54:53 74° WNW 19:00:39 10° NNE
USA 59 Rocket 0.2 18:50:55 10° NW 18:54:53 85° SW 19:00:05 12° SE
Cosmos 1707 2.5 18:53:33 10° N 18:57:03 58° E 19:00:08 13° SSE
Cosmos 1515 Rocket 3.8 18:53:09 10° N 18:57:20 45° ENE 19:00:44 15° SSE
Okean O Rocket 2.5 18:57:42 20° ESE 18:59:55 31° ENE 19:03:50 10° N
CZ-4B DEB 4.4 19:02:12 10° S 19:07:42 76° WSW 19:13:14 10° NNW
USA 306 4.1 19:05:08 10° W 19:07:56 29° NNW 19:11:10 10° NE
Cosmos 2278 Rocket 2.1 19:02:17 10° NNW 19:07:59 79° ENE 19:12:39 16° SSE
CZ-4 R/B 1.4 19:05:02 10° S 19:08:49 77° WSW 19:12:43 10° NNW
Meteor 2-9 Rocket 4.4 19:04:28 10° SSE 19:09:27 42° E 19:14:32 10° NNE
Cosmos 2034 Rocket 4.3 19:04:43 10° SSE 19:10:30 43° E 19:16:17 10° NNE
Meteor 1-13 Rocket 4.4 19:04:54 10° N 19:10:40 55° ENE 19:14:59 17° SSE
CZ-4B R/B 3.1 19:06:53 11° SSE 19:12:12 70° ENE 19:17:34 10° N
Cosmos 1500 Rocket 4.2 19:10:44 25° SE 19:12:20 33° E 19:16:16 10° NNE
Cosmos 1766 Rocket 4.4 19:08:58 10° SSW 19:13:13 53° WNW 19:17:32 10° N
Cosmos 1072 Rocket 4.5 19:07:37 10° S 19:14:00 74° E 19:20:23 10° NNE
Resurs 01 Rocket 1.5 19:10:19 12° SSE 19:14:19 79° ENE 19:18:46 10° N
NOSS 3-3 (C) 4.0 19:10:07 10° S 19:15:02 41° ESE 19:20:40 10° NE
NOSS 2-1 (C) 4.2 19:11:18 10° NW 19:15:13 55° SW 19:19:46 14° SSE
Meteor 2-10 4.2 19:10:47 10° S 19:16:15 63° E 19:21:54 10° NNE
ADEOS 4.5 19:11:56 10° S 19:16:58 49° W 19:22:02 10° NNW
Meteor 2-17 Rocket 4.4 19:11:14 10° N 19:17:19 87° W 19:23:23 10° S
GEOS 3 Rocket 3.6 19:13:39 19° SE 19:17:28 84° SW 19:22:41 10° NW
Helios 1A 3.6 19:13:32 10° N 19:17:32 55° WNW 19:21:28 10° SSW
USA 290 2.8 19:15:01 10° NNW 19:18:15 56° WSW 19:20:16 21° S
Cosmos 1743 Rocket 4.4 19:19:19 29° E 19:19:19 29° E 19:22:49 10° NNE
USA 186 1.8 19:17:45 22° S 19:19:41 78° WSW 19:22:56 10° NNW
PAYLOAD B 4.4 19:15:14 10° S 19:20:50 76° WSW 19:26:28 10° NNW
MOS 1-B 4.3 19:17:39 18° SSE 19:22:04 67° ENE 19:27:49 10° N
SPOT 5 3.6 19:22:14 29° E 19:22:57 30° ENE 19:26:50 10° N
Okean-O 3.4 19:23:05 31° E 19:23:42 32° ENE 19:27:37 10° N
Cosmos 2208 Rocket 4.1 19:20:19 10° S 19:25:23 53° ESE 19:30:34 10° NNE
Cosmos 1408 Rocket 3.5 19:22:57 10° S 19:27:14 64° E 19:31:36 10° NNE
CZ-4B R/B 3.8 19:25:15 10° S 19:28:56 46° W 19:32:50 10° NNW
NOSS 3-3 (A) 3.7 19:23:59 10° SSW 19:29:07 57° ESE 19:35:06 10° NE
ISS -3.4 19:26:13 10° WSW 19:29:33 65° NNW 19:30:43 36° NE
Cosmos 2237 Rocket 2.2 19:28:15 10° SSW 19:33:52 87° WNW 19:39:32 10° NNE
CSL-04 Rocket 3.6 19:31:45 17° SSE 19:36:01 83° WSW 19:41:22 10° NNW
Aureole 3 Rocket 3.9 19:29:18 10° S 19:36:18 60° E 19:41:17 10° NNE
Cosmos 1607 4.4 19:31:00 10° S 19:36:52 38° ESE 19:42:45 10° NE
Meteor 1-11 Rocket 3.7 19:39:42 10° SSW 19:45:20 82° W 19:50:55 10° N
Lacrosse 4 Rocket 4.3 19:44:10 10° W 19:45:53 12° WSW 19:47:38 10° SW
MOS 1 Rocket 3.9 19:45:39 41° E 19:46:10 42° ENE 19:51:06 10° N
IKONOS-2 4.4 19:43:14 10° NNE 19:47:24 84° WNW 19:50:24 18° SSW
Cosmos 158 Rocket 3.9 19:45:53 10° SSW 19:50:46 78° WNW 19:55:39 10° NNE
ATLAS CENTAUR R/B 1.6 19:47:41 10° SW 19:51:11 57° NW 19:54:52 10° NNE
Cosmos 1805 Rocket 3.3 19:52:47 65° SSE 19:53:22 79° E 19:57:43 10° N
Cosmos 1428 Rocket 4.4 19:53:18 10° N 19:59:26 90° W 20:02:19 34° S
USA 276 4.3 19:59:28 10° WNW 20:00:38 21° W 20:00:38 21° W
SL-24 R/B 4.2 20:01:56 67° ESE 20:02:16 70° E 20:07:05 10° N
Cosmos 2369 Rocket 3.1 19:59:50 10° N 20:04:57 32° NE 20:05:11 32° ENE
Sich 1 3.3 20:07:33 47° SW 20:08:34 65° W 20:12:53 10° N
Meteor 1-21 4.2 20:04:00 10° N 20:09:45 68° ENE 20:10:23 63° ESE
Cosmos 1943 Rocket 2.9 20:06:41 10° NW 20:11:57 48° WSW 20:14:06 32° SSW
BlueWalker 3 4.5 20:10:15 10° W 20:12:01 13° SW 20:12:13 13° SW
Terra 2.5 20:13:52 40° NE 20:13:52 40° NE 20:17:25 10° N
ACS3 Solar Sail 2.2 20:09:36 25° S 20:13:31 64° W 20:19:54 10° NNW
ERS-1 Rocket 3.2 20:14:03 56° NE 20:14:03 56° NE 20:18:34 10° N
Cosmos 2298 Rocket 3.9 20:10:32 10° NNW 20:15:51 81° WSW 20:16:27 70° S
Cosmos 1975 4.5 20:18:58 26° N 20:18:58 26° N 20:20:45 10° N
Cosmos 2150 Rocket 3.9 20:12:22 10° NNW 20:17:32 78° WSW 20:17:56 72° SSW
USA 32 4.2 20:12:49 10° N 20:18:02 67° W 20:19:24 48° SSW
Cosmos 1805 4.5 20:21:37 37° NW 20:21:37 37° NW 20:24:26 10° N
Ariane Rocket 3.9 20:24:21 36° NE 20:24:21 36° NE 20:27:58 10° N
Cosmos 1315 Rocket 4.3 20:20:31 10° NNW 20:24:04 32° W 20:24:27 32° WSW
Cosmos 2026 Rocket 4.0 20:18:03 10° N 20:24:18 79° W 20:25:51 52° S
Cosmos 1092 Rocket 4.0 20:18:26 10° N 20:24:47 81° W 20:26:28 52° S
IRS-1A Rocket 4.1 20:26:28 78° SE 20:26:50 84° ENE 20:32:34 10° NNW
Meteor 2-12 Rocket 4.3 20:21:55 10° N 20:28:07 90° SW 20:28:56 69° S
SL-16 R/B 2.4 20:35:16 62° NNE 20:35:16 62° NNE 20:39:58 10° NNE
Okean O Rocket 3.4 20:35:02 24° WSW 20:36:10 27° W 20:39:57 10° NW
Cosmos 1634 Rocket 4.0 20:36:31 54° SSW 20:38:04 79° W 20:44:27 10° N
Cosmos 1656 Rocket 3.8 20:36:17 10° NNW 20:41:19 69° N 20:41:19 69° N
USA 59 Rocket 3.1 20:42:48 10° W 20:44:19 11° WSW 20:45:59 10° SW
IRS-1C Rocket 4.3 20:45:02 68° NW 20:45:02 68° NW 20:49:46 10° NNW
SPOT 3 Rocket 4.4 21:00:55 44° N 21:00:55 44° N 21:04:24 10° NNW
SPOT 5 4.4 21:01:22 29° W 21:01:22 29° W 21:04:52 10° NW
USA 267 3.8 21:08:22 46° NE 21:08:54 47° NNE 21:15:05 10° NW
Cosmos 2279 Rocket 4.5 21:20:00 56° WNW 21:20:00 56° WNW 21:25:50 10° N
NOSS 3-4 (A) 4.3 21:39:03 10° NW 21:44:37 53° W 21:44:37 53° W
NOSS 3-4 (C) 4.3 21:39:09 10° NW 21:44:43 54° W 21:44:43 54° W
Cosmos 2369 Rocket 3.8 21:43:43 10° NW 21:46:58 31° WNW 21:46:58 31° WNW
Terra 4.4 21:52:34 16° WNW 21:52:34 16° WNW 21:54:10 10° NW
ATLAS 2AS CENTAUR R/B 4.2 22:31:20 10° NNW 22:36:30 29° NNE 22:36:30 29° NNE
Cosmos 2344 4.3 23:21:00 10° NW 23:27:14 59° NW 23:27:14 59° NW
